Regional Weather Roundup
Issued by NWS Sioux Falls, SD

Home | Current Version | Previous Version | Text Only | Print | Product List | Glossary Off
Versions: 1 2 3 4 5 6 7 8 9 10 11 12 13 14 15 16 17 18 19 20 21 22 23 24 25 26 27 28 29 30 31 32 33 34 35 36 37 38 39 40 41 42 43 44 45 46 47 48 49 50

000
ASUS43 KFSD 240910
RWRFSD

WEATHER ROUNDUP FOR SE SOUTH DAKOTA/SW MINNESOTA/NW IOWA
NATIONAL WEATHER SERVICE SIOUX FALLS SD
400 AM CDT SAT JUN 24 2017

NOTE: "FAIR" INDICATES FEW OR NO CLOUDS BELOW 12,000 FEET WITH NO
SIGNIFICANT WEATHER AND OR OBSTRUCTIONS TO VISIBILITY.


SDZ038>040-050-052>070-241000-
SOUTHEAST SOUTH DAKOTA

CITY           SKY/WX    TMP DP  RH WIND       PRES   REMARKS
BROOKINGS      CLEAR     46  40  79 W3        30.09F
CHAMBERLAIN    CLEAR     45  43  91 SW5       30.15F
HURON          CLEAR     46  41  82 SW6       30.11F
MADISON        FAIR      46  41  81 W7        30.11S
MITCHELL       CLEAR     49  40  71 W6        30.13F
SIOUX FALLS    CLEAR     49  43  80 W6        30.11S
WINNER         FAIR      44  34  67 SW6       30.18S
YANKTON        CLEAR     49  40  71 W7        30.15S
$$

MNZ071-072-080-081-089-090-097-098-241000-
SOUTHWEST MINNESOTA

CITY           SKY/WX    TMP DP  RH WIND       PRES   REMARKS
FAIRMONT       CLEAR     53  43  68 NW10      30.05S
JACKSON        CLEAR     46  43  87 CALM      30.07S
LUVERNE        CLEAR     45  39  81 W7        30.11S
MARSHALL       CLEAR     50  42  74 W9        30.06S
MONTEVIDEO     CLEAR     48  43  81 NW3       30.04S
PIPESTONE      CLEAR     46  41  81 W3        30.09S
REDWOOD FALLS  CLEAR     50  43  77 W9        30.03S
TRACY          CLEAR     52  43  72 W5        30.07R
WINDOM         CLEAR     46  43  87 W7        30.06S
WORTHINGTON    CLEAR     48  42  80 W9        30.09S
$$

IAZ001>003-012>014-020>022-031-032-NEZ013-014-SDZ071-241000-
NORTHWEST IOWA

CITY           SKY/WX    TMP DP  RH WIND       PRES   REMARKS
DENISON        CLEAR     52  43  71 CALM      30.13S
ESTHERVILLE    CLEAR     48  45  89 W8        30.06S
LE MARS        CLEAR     50  41  71 CALM      30.13S
ORANGE CITY    CLEAR     46  43  87 NW5       30.12S
SHELDON        CLEAR     48  43  81 W7        30.09S
SIOUX CITY     CLEAR     48  41  76 CALM      30.14R
SPENCER        CLEAR     49  44  83 W10       30.08F
STORM LAKE     CLEAR     48  43  81 NW10      30.11R
$$

ABBREVIATIONS USED IN REMARKS
   TC - TEMPERATURE IN CELSIUS
  WCI - WIND CHILL INDEX
   HX - HEAT INDEX
  VSB - VISIBILITY




USA.gov is the U.S. government's official web portal to all federal, state and local government web resources and services.